Weather History for Hazen, ND

Change the Weather History Date:

Friday, September 20, 2013

  Actual Average (KN60) Record (KN60)
Temperature  
Mean Temperature 50 °F -  
Max Temperature 64 °F 65 °F 81 °F (2005)
Min Temperature 35 °F 41 °F 27 °F (1997)
Degree Days  
Heating Degree Days 16    
Moisture  
Dew Point 38 °F    
Average Humidity 70    
Maximum Humidity 100    
Minimum Humidity 34    
Precipitation  
Precipitation 0.00 in - - ()
Sea Level Pressure  
Sea Level Pressure 30.03 in    
Wind  
Wind Speed 8 mph (WNW)    
Max Wind Speed 18 mph    
Max Gust Speed 23 mph    
Visibility 10 miles    
Events      
Averages and records for this station are not official NWS values.
T = Trace of Precipitation, MM = Missing Value Source: NWS Daily Summary

Daily Weather History Graph

Daily Weather History Graph

Search for Another Location

Airport:

Trip Planner

Search our weather history database for the weather conditions in past years. The results will help you decide how hot, cold, wet, or windy it might be!

Date:

Astronomy

Sep. 20, 2013 Rise Set
Actual Time 7:30 AM CDT 7:47 PM CDT
Civil Twilight 7:00 AM CDT 8:18 PM CDT
Nautical Twilight 6:24 AM CDT 8:54 PM CDT
Astronomical Twilight 5:46 AM CDT 9:31 PM CDT
Moon 8:12 PM CDT (9/20) 8:55 AM CDT (9/20)
Length of Visible Light 13h 17m
Length of Day
12h 16m
Full, 98% of the Moon is Illuminated
Sep 20
Full
Sep 26
Last Quarter
Oct 4
New
Oct 11
First Quarter
Oct 18
Full

Hourly Weather History & Observations

Time (CDT) Temp. Windchill Dew Point Humidity Pressure Visibility Wind Dir Wind Speed Gust Speed Precip Events Conditions
12:15 AM 48.2 °F - 39.2 °F 71% 30.08 in 10.0 mi NW 8.1 mph - N/A   Overcast
12:35 AM 48.2 °F - 39.2 °F 71% 30.08 in 10.0 mi NNW 11.5 mph - N/A   Overcast
12:55 AM 48.2 °F - 39.2 °F 71% 30.08 in 10.0 mi NNW 11.5 mph - N/A   Overcast
1:15 AM 48.2 °F - 39.2 °F 71% 30.07 in 10.0 mi NNW 6.9 mph - N/A   Overcast
1:35 AM 48.2 °F - 39.2 °F 71% 30.07 in 10.0 mi NW 6.9 mph - N/A   Overcast
1:55 AM 48.2 °F - 39.2 °F 71% 30.07 in 10.0 mi NW 9.2 mph - N/A   Overcast
2:15 AM 46.4 °F 43.5 °F 39.2 °F 76% 30.06 in 10.0 mi NW 5.8 mph - N/A   Overcast
2:35 AM 44.6 °F 40.7 °F 39.2 °F 81% 30.06 in 10.0 mi NW 6.9 mph - N/A   Mostly Cloudy
2:55 AM 42.8 °F 38.6 °F 37.4 °F 81% 30.06 in 10.0 mi West 6.9 mph - N/A   Overcast
3:15 AM 39.2 °F 35.0 °F 37.4 °F 93% 30.06 in 10.0 mi West 5.8 mph - N/A   Overcast
3:35 AM 39.2 °F 35.0 °F 37.4 °F 93% 30.06 in 10.0 mi WSW 5.8 mph - N/A   Overcast
3:55 AM 39.2 °F 34.2 °F 37.4 °F 93% 30.05 in 10.0 mi West 6.9 mph - N/A   Overcast
4:15 AM 39.2 °F 34.2 °F 37.4 °F 93% 30.06 in 10.0 mi WSW 6.9 mph - N/A   Overcast
4:35 AM 37.4 °F 32.8 °F 37.4 °F 100% 30.05 in 10.0 mi WSW 5.8 mph - N/A   Mostly Cloudy
4:55 AM 37.4 °F 32.8 °F 35.6 °F 93% 30.05 in 10.0 mi SW 5.8 mph - N/A   Partly Cloudy
5:15 AM 37.4 °F 32.1 °F 35.6 °F 93% 30.05 in 10.0 mi WSW 6.9 mph - N/A   Clear
5:35 AM 37.4 °F 33.8 °F 35.6 °F 93% 30.05 in 10.0 mi SW 4.6 mph - N/A   Clear
5:55 AM 37.4 °F 31.4 °F 35.6 °F 93% 30.05 in 10.0 mi SW 8.1 mph - N/A   Partly Cloudy
6:15 AM 37.4 °F 31.4 °F 35.6 °F 93% 30.05 in 10.0 mi WSW 8.1 mph - N/A   Partly Cloudy
6:35 AM 37.4 °F 30.8 °F 35.6 °F 93% 30.05 in 10.0 mi WSW 9.2 mph - N/A   Scattered Clouds
6:55 AM 35.6 °F 30.7 °F 33.8 °F 93% 30.06 in 10.0 mi WSW 5.8 mph - N/A   Clear
7:15 AM 35.6 °F 31.7 °F 33.8 °F 93% 30.06 in 10.0 mi West 4.6 mph - N/A   Clear
7:35 AM 35.6 °F 31.7 °F 33.8 °F 93% 30.06 in 10.0 mi WSW 4.6 mph - N/A   Clear
7:55 AM 35.6 °F 31.7 °F 33.8 °F 93% 30.07 in 10.0 mi WSW 4.6 mph - N/A   Clear
8:15 AM 35.6 °F 30.7 °F 35.6 °F 100% 30.07 in 10.0 mi WSW 5.8 mph - N/A   Clear
8:35 AM 37.4 °F 33.8 °F 37.4 °F 100% 30.06 in 10.0 mi WSW 4.6 mph - N/A   Clear
8:55 AM 39.2 °F 33.0 °F 37.4 °F 93% 30.07 in 10.0 mi WSW 9.2 mph - N/A   Clear
9:15 AM 41.0 °F 35.2 °F 39.2 °F 93% 30.07 in 10.0 mi WSW 9.2 mph - N/A   Clear
9:35 AM 44.6 °F 39.7 °F 39.2 °F 81% 30.07 in 10.0 mi WSW 9.2 mph - N/A   Clear
9:55 AM 46.4 °F 41.9 °F 39.2 °F 76% 30.07 in 10.0 mi WSW 9.2 mph - N/A   Clear
10:15 AM 48.2 °F - 41.0 °F 76% 30.07 in 10.0 mi West 8.1 mph - N/A   Clear
10:35 AM 50.0 °F - 41.0 °F 71% 30.07 in 10.0 mi WSW 5.8 mph - N/A   Clear
10:55 AM 53.6 °F - 44.6 °F 72% 30.06 in 10.0 mi West 5.8 mph - N/A   Clear
11:15 AM 55.4 °F - 44.6 °F 67% 30.06 in 10.0 mi NW 12.7 mph - N/A   Clear
11:35 AM 57.2 °F - 41.0 °F 55% 30.06 in 10.0 mi NW 13.8 mph - N/A   Clear
11:55 AM 57.2 °F - 41.0 °F 55% 30.05 in 10.0 mi NNW 12.7 mph 17.3 mph N/A   Partly Cloudy
12:15 PM 59.0 °F - 41.0 °F 51% 30.05 in 10.0 mi NW 15.0 mph - N/A   Partly Cloudy
12:35 PM 59.0 °F - 41.0 °F 51% 30.05 in 10.0 mi NNW 11.5 mph 19.6 mph N/A   Clear
12:55 PM 59.0 °F - 39.2 °F 48% 30.04 in 10.0 mi NW 16.1 mph 21.9 mph N/A   Clear
1:15 PM 60.8 °F - 37.4 °F 42% 30.04 in 10.0 mi NW 18.4 mph 23.0 mph N/A   Clear
1:35 PM 60.8 °F - 39.2 °F 45% 30.03 in 10.0 mi NW 15.0 mph 20.7 mph N/A   Clear
1:55 PM 62.6 °F - 39.2 °F 42% 30.03 in 10.0 mi NW 17.3 mph 23.0 mph N/A   Clear
2:15 PM 62.6 °F - 37.4 °F 39% 30.02 in 10.0 mi NNW 17.3 mph 23.0 mph N/A   Clear
2:35 PM 62.6 °F - 37.4 °F 39% 30.02 in 10.0 mi NW 11.5 mph 20.7 mph N/A   Clear
2:55 PM 62.6 °F - 35.6 °F 37% 30.01 in 10.0 mi NNW 12.7 mph 18.4 mph N/A   Clear
3:15 PM 62.6 °F - 35.6 °F 37% 30.01 in 10.0 mi NNW 17.3 mph - N/A   Clear
3:35 PM 62.6 °F - 35.6 °F 37% 30.01 in 10.0 mi NW 12.7 mph 18.4 mph N/A   Clear
3:55 PM 64.4 °F - 35.6 °F 34% 30.00 in 10.0 mi NW 13.8 mph 17.3 mph N/A   Clear
4:15 PM 64.4 °F - 37.4 °F 37% 30.00 in 10.0 mi NW 10.4 mph - N/A   Clear
4:35 PM 64.4 °F - 37.4 °F 37% 29.99 in 10.0 mi NNW 10.4 mph - N/A   Clear
4:55 PM 64.4 °F - 37.4 °F 37% 29.99 in 10.0 mi North 9.2 mph - N/A   Clear
5:15 PM 64.4 °F - 37.4 °F 37% 29.99 in 10.0 mi NNW 6.9 mph - N/A   Clear
5:35 PM 62.6 °F - 35.6 °F 37% 29.98 in 10.0 mi North 5.8 mph - N/A   Clear
5:55 PM 64.4 °F - 35.6 °F 34% 29.98 in 10.0 mi NW 5.8 mph - N/A   Clear
6:15 PM 62.6 °F - 37.4 °F 39% 29.98 in 10.0 mi NW 5.8 mph - N/A   Clear
6:35 PM 62.6 °F - 37.4 °F 39% 29.98 in 10.0 mi NNW 4.6 mph - N/A   Clear
6:55 PM 62.6 °F - 37.4 °F 39% 29.97 in 10.0 mi NNW 4.6 mph - N/A   Clear
7:15 PM 59.0 °F - 37.4 °F 45% 29.97 in 10.0 mi North 3.5 mph - N/A   Clear
7:35 PM 55.4 °F - 41.0 °F 58% 29.97 in 10.0 mi Calm Calm - N/A   Clear
7:55 PM 50.0 °F - 41.0 °F 71% 29.97 in 10.0 mi Calm Calm - N/A   Clear
8:15 PM 44.6 °F 43.1 °F 39.2 °F 81% 29.97 in 10.0 mi East 3.5 mph - N/A   Clear
8:35 PM 42.8 °F 40.1 °F 37.4 °F 81% 29.97 in 10.0 mi East 4.6 mph - N/A   Clear
8:55 PM 41.0 °F - 35.6 °F 81% 29.98 in 10.0 mi Calm Calm - N/A   Clear
9:15 PM 41.0 °F 39.0 °F 37.4 °F 87% 29.98 in 10.0 mi ESE 3.5 mph - N/A   Clear
9:35 PM 41.0 °F 37.1 °F 37.4 °F 87% 29.98 in 10.0 mi ESE 5.8 mph - N/A   Clear
9:55 PM 39.2 °F 35.9 °F 35.6 °F 87% 29.99 in 10.0 mi SE 4.6 mph - N/A   Partly Cloudy
10:15 PM 37.4 °F - 35.6 °F 93% 29.99 in 10.0 mi Calm Calm - N/A   Clear
10:35 PM 39.2 °F - 35.6 °F 87% 29.99 in 10.0 mi Calm Calm - N/A   Clear
10:55 PM 37.4 °F - 35.6 °F 93% 29.98 in 10.0 mi Calm Calm - N/A   Clear
11:15 PM 37.4 °F - 33.8 °F 87% 29.98 in 10.0 mi Calm Calm - N/A   Clear
11:35 PM 37.4 °F 34.9 °F 33.8 °F 87% 29.97 in 10.0 mi NNE 3.5 mph - N/A   Clear
11:55 PM 35.6 °F - 32.0 °F 87% 29.97 in 10.0 mi Calm Calm - N/A   Clear